Location: Unspecified
(54.1780°N, 0.0000°E)
Time: 01:35:06
(UTC+00:00)

Tiros 1 - Pass Details

Date: 25 June 2019
Orbit: 630 x 664 km, 48.4° (Epoch: 17 August)

Event Time Altitude Azimuth Distance (km) Brightness Sun altitude
Rises 02:22:32 0° 269° (W) 2,940 10.2 -6.8°
Reaches altitude 10° 02:25:01 10° 260° (W) 2,025 9.3 -6.6°
Maximum altitude 02:29:12 33° 196° (SSW) 1,058 7.8 -6.3°
Drops below altitude 10° 02:33:21 10° 132° (SE) 2,009 9.6 -5.9°
Sets 02:35:49 0° 123° (ESE) 2,913 10.5 -5.7°
